Flag for Dominican Republic Weather past 2 weeks in Punta Cana, Dominican Republic

Now
81 °F

Passing clouds.


Feels Like: 86 °F
Forecast: 79 / 87 °F
Wind: 7 mph from Southeast

Location: Punta Cana

Current Time: Jul 31, 2015 at 7:46:00 AM

Latest Report: Jul 31, 2015 at 7:00 AM


Visibility: N/A

Pressure: 30.04 "Hg

Humidity: 84%

Dew point: 75 °F

Location of Punta CanaLocation

Historic Weather in Punta Cana — Graph

°F

Punta Cana temperature yesterday

Maximum temperature yesterday: 90 °F (at 2:00 PM)
Minimum temperature yesterday: 81 °F (at 12:00 AM)
Average temperature yesterday: 84 °F

Past Weeks' High & Low Weather Summary

 TemperatureHumidityPressure
High90 °F (Jul 16, 2:00 PM)100% (Jul 20, 2:00 AM)30.12 "Hg (Jul 20, 2:00 AM)
Low75 °F (Jul 17, 2:00 AM)59% (Jul 27, 1:00 PM)29.95 "Hg (Jul 30, 5:00 PM)
Average83 °F79%30.04 "Hg
* Reported Jul 16 7:00 AM — Jul 31 7:00 AM, Punta Cana, Weather by CustomWeather, © 2015

Note: Actual official high and low records may vary slightly from our data, if they occured in-between our weather recording intervals... More about our weather records

Advertising

Punta Cana weather history for previous 24 hours

 ConditionsComfort  
Time TempWeatherWind HumidityBarometerVisibility
7:00 AM
Fri, Jul 31
81 °FPassing clouds.7 mph84%30.04 "HgN/A
6:00 AM81 °FPassing clouds.9 mph84%30.01 "HgN/A
5:00 AM81 °FPassing clouds.12 mph84%30.01 "HgN/A
4:00 AM81 °FPassing clouds.6 mph84%30.01 "HgN/A
3:00 AM81 °FPassing clouds.12 mph84%30.01 "HgN/A
2:00 AM79 °FSprinkles. Partly cloudy.12 mph94%30.04 "Hg5 mi
1:00 AM81 °FLight rain. Partly cloudy.12 mph89%30.04 "Hg5 mi
12:00 AM82 °FPassing clouds.12 mph84%30.07 "HgN/A
11:00 PM
Thu, Jul 30
82 °FPassing clouds.12 mph84%30.07 "HgN/A
10:03 PM82 °FPassing clouds.6 mph79%30.07 "HgN/A
10:00 PM82 °FPassing clouds.6 mph79%30.07 "HgN/A
9:00 PM82 °FPassing clouds.12 mph79%30.04 "HgN/A
8:00 PM82 °FPassing clouds.12 mph79%30.01 "HgN/A
7:00 PM84 °FScattered clouds.12 mph74%30.01 "HgN/A
6:00 PM84 °FScattered clouds.12 mph74%29.98 "HgN/A
5:00 PM86 °FScattered clouds.14 mph70%29.95 "HgN/A
4:00 PM88 °FPartly sunny.12 mph66%29.98 "HgN/A
3:00 PM88 °FPassing clouds.12 mph66%30.01 "HgN/A
2:00 PM90 °FPassing clouds.12 mph63%30.04 "HgN/A
1:00 PM88 °FPassing clouds.12 mph66%30.04 "HgN/A
12:00 PM88 °FPassing clouds.12 mph66%30.07 "HgN/A
11:00 AM88 °FPassing clouds.12 mph66%30.07 "HgN/A
10:00 AM86 °FPassing clouds.9 mph66%30.07 "HgN/A
9:00 AM86 °FPassing clouds.9 mph66%30.07 "HgN/A
8:00 AM82 °FPassing clouds.14 mph79%30.07 "HgN/A
7:00 AM81 °FPassing clouds.7 mph79%30.04 "HgN/A
Weather by CustomWeather, © 2015

See weather overviewHow to use our weather pages